Printer-friendly version

IAU Minor Planet Center

Minor Planet Center

MPEC 2000-V19: 2000 UE110

The following Minor Planet Electronic Circular may be linked-to from your own Web pages, but must not otherwise be redistributed electronically.


Read MPEC 2000-V18 Read MPEC 2000-V20


M.P.E.C. 2000-V19                                Issued 2000 Nov. 6, 18:40 UT

     The Minor Planet Electronic Circulars contain information on unusual
         minor planets and routine data on comets.  They are published
   on behalf of Commission 20 of the International Astronomical Union by the
          Minor Planet Center, Smithsonian Astrophysical Observatory,
                          Cambridge, MA 02138, U.S.A.

             Prepared using the Tamkin Foundation Computer Network

                              MPC@CFA.HARVARD.EDU
          URL http://cfa-www.harvard.edu/iau/mpc.html  ISSN 1523-6714

                                  2000 UE110

Observations:
     K00UB0E* C2000 10 29.45816 07 36 54.70 -01 18 56.1          17.8        704
     K00UB0E  C2000 10 29.47335 07 36 55.15 -01 19 25.7          18.5        704
     K00UB0E  C2000 10 29.48807 07 36 55.58 -01 19 54.8          18.7        704
     K00UB0E  C2000 10 29.50283 07 36 55.96 -01 20 24.5          18.4        704
     K00UB0E IC2000 10 30.11211 07 37 13.74 -01 40 50.1                      557
     K00UB0E  C2000 10 30.12168 07 37 14.02 -01 41 09.7                      557
     K00UB0E  C2000 10 30.13063 07 37 14.35 -01 41 26.5          17.4 R      046
     K00UB0E  C2000 10 30.13225 07 37 14.36 -01 41 29.6                      046
     K00UB0E  C2000 10 30.13338 07 37 14.41 -01 41 31.9                      046
     K00UB0E  C2000 10 30.13459 07 37 14.41 -01 41 34.2                      046
     K00UB0E  C2000 10 30.13563 07 37 14.46 -01 41 36.5                      046
     K00UB0E  C2000 10 30.13667 07 37 14.52 -01 41 38.8          17.6 R      046
     K00UB0E  C2000 10 30.15125 07 37 14.80 -01 42 09.2                      557
     K00UB0E  C2000 10 30.18206 07 37 15.66 -01 43 10.7                      557
     K00UB0E  C2000 10 30.18462 07 37 15.70 -01 43 16.7                      557
     K00UB0E  C2000 10 30.18733 07 37 15.80 -01 43 21.8                      557
     K00UB0E  C2000 10 30.43516 07 37 22.95 -01 51 40.8                      711
     K00UB0E  C2000 10 30.44012 07 37 23.09 -01 51 50.8                      711
     K00UB0E  C2000 10 30.44510 07 37 23.22 -01 52 00.2                      711
     K00UB0E  C2000 10 30.45251 07 37 23.40 -01 52 14.9          18.3        704
     K00UB0E  C2000 10 30.46656 07 37 23.77 -01 52 43.3          18.4        704
     K00UB0E  C2000 10 30.48062 07 37 24.27 -01 53 12.1          19.3        704
     K00UB0E  C2000 10 30.49470 07 37 24.60 -01 53 39.3          18.5        704
     K00UB0E  C2000 10 30.85892 07 37 34.56 -02 05 58.7          17.9 V      344
     K00UB0E  C2000 10 30.86038 07 37 34.60 -02 06 01.7                      344
     K00UB0E  C2000 10 30.86204 07 37 34.64 -02 06 05.0                      344
     K00UB0E bC2000 10 31.32830 07 37 47.36 -02 21 44.3                      808
     K00UB0E bC2000 10 31.33993 07 37 47.67 -02 22 08.3                      808
     K00UB0E bC2000 10 31.36123 07 37 48.14 -02 22 52.4                      808
     K00UB0E  C2000 10 31.41908 07 37 49.78 -02 24 56.2          18.1        704
     K00UB0E  C2000 10 31.43355 07 37 50.21 -02 25 26.4          18.7        704
     K00UB0E  C2000 10 31.44763 07 37 50.52 -02 25 54.8          18.0        704
     K00UB0E  C2000 10 31.46287 07 37 50.96 -02 26 25.3          18.1        704
     K00UB0E  C2000 10 31.47776 07 37 51.28 -02 26 55.8          17.8        704
     K00UB0E  C2000 11 01.41039 07 38 15.12 -02 58 45.2          17.9        704
     K00UB0E  C2000 11 01.42402 07 38 15.44 -02 59 13.0          18.1        704
     K00UB0E  C2000 11 01.43262 07 38 15.56 -02 59 31.4          18.1        704
     K00UB0E  C2000 11 01.43769 07 38 15.74 -02 59 41.5          17.8        704
     K00UB0E  C2000 11 01.44654 07 38 15.89 -03 00 00.2          18.4        704
     K00UB0E  C2000 11 01.45144 07 38 16.06 -03 00 09.4          17.6        704
     K00UB0E  C2000 11 01.46043 07 38 16.24 -03 00 28.7          18.5        704
     K00UB0E  C2000 11 01.46513 07 38 16.34 -03 00 37.8          17.9        704
     K00UB0E  C2000 11 01.47427 07 38 16.53 -03 00 56.4          18.4        704
     K00UB0E  C2000 11 01.48811 07 38 16.86 -03 01 25.5          18.2        704
     K00UB0E  C2000 11 02.07690 07 38 31.04 -03 21 40.7          17.6 R      118
     K00UB0E  C2000 11 02.07972 07 38 31.13 -03 21 46.5                      118
     K00UB0E  C2000 11 02.08542 07 38 31.22 -03 21 58.3                      118
     K00UB0E IC2000 11 02.29838 07 38 36.33 -03 29 13.4                      808
     K00UB0E  C2000 11 02.31852 07 38 36.61 -03 29 54.0                      808
     K00UB0E  C2000 11 02.33681 07 38 36.98 -03 30 31.3                      808
     K00UB0E  C2000 11 02.44114 07 38 39.43 -03 34 14.4          18.0        704
     K00UB0E  C2000 11 02.45637 07 38 39.71 -03 34 46.1          18.5        704
     K00UB0E  C2000 11 02.47043 07 38 40.11 -03 35 15.5          19.3        704
     K00UB0E  C2000 11 02.48521 07 38 40.33 -03 35 45.8          18.9        704
     K00UB0E  C2000 11 02.49920 07 38 40.63 -03 36 14.4          18.6        704
     K00UB0E  C2000 11 03.42562 07 39 00.85 -04 08 26.5          17.5 V      918
     K00UB0E  C2000 11 03.42948 07 39 00.93 -04 08 34.3                      918
     K00UB0E  C2000 11 03.43206 07 39 00.93 -04 08 39.7                      918
     K00UB0E  C2000 11 03.43588 07 39 01.01 -04 08 47.7                      918
     K00UB0E  C2000 11 03.50409 07 39 02.38 -04 11 07.6                      670
     K00UB0E  C2000 11 03.50574 07 39 02.35 -04 11 14.0                      670
     K00UB0E  C2000 11 05.10606 07 39 33.31 -05 07 24.3                      046
     K00UB0E  C2000 11 05.10707 07 39 33.38 -05 07 27.1                      046
     K00UB0E  C2000 11 05.10815 07 39 33.34 -05 07 29.3                      046
     K00UB0E  C2000 11 05.10924 07 39 33.36 -05 07 31.7          16.9 R      046
     K00UB0E  C2000 11 05.11226 07 39 33.43 -05 07 38.7                      046
     K00UB0E  C2000 11 05.15663 07 39 34.15 -05 09 12.3                      557
     K00UB0E  C2000 11 05.15891 07 39 34.21 -05 09 17.2                      557
     K00UB0E  C2000 11 05.16119 07 39 34.23 -05 09 21.7                      557
     K00UB0E  C2000 11 06.04400 07 39 49.21 -05 40 40.4          17.4 R      046
     K00UB0E  C2000 11 06.04545 07 39 49.24 -05 40 44.0                      046
     K00UB0E  C2000 11 06.04641 07 39 49.24 -05 40 45.8                      046
     K00UB0E  C2000 11 06.04741 07 39 49.28 -05 40 47.9                      046

Observer details:
046 Klet.  Observers J. Ticha, M. Tichy, P. Jelinek.  0.57-m f/5.2
    reflector + CCD.
118 Modra.  Observers L. Kornos, J. Toth.  0.6-m f/5.5 reflector + CCD.
344 Bohyunsan Optical Astronomy Observatory.  Observers M.-Y. Chun, B.-C. Lee.
    1.8-m f/8 reflector + CCD.
557 Ondrejov.  Observers P. Pravec, P. Kusnirak.  0.65-m f/3.6 reflector + CCD.
670 Camarillo.  Observer J. E. Rogers.  0.30-m f/6.7 Helin Telescope + CCD.
704 Lincoln Laboratory ETS, New Mexico.  Observers M. Blythe, F. Shelly,
    M. Bezpalko, M. Elowitz, R. Huber, L. Manguso.  Measurers J. Stuart,
    R. Sayer, J. B. Evans, H. Viggh.  1.0-m f/2.15 reflector + CCD.
711 McDonald Observatory.  Observers P. J. Shelus, P. J. Shelus III.  0.76-m
    reflector + CCD.
808 El Leoncito.  Observers C. E. Lopez, H. S. Lepez, J. A. Vicentela.
    0.5-m f/7.5 double astrograph + CCD.
918 Badlands Observatory, Quinn.  Observer R. Dyvig.  0.66-m f/4.8
    reflector + CCD.

Orbital elements:
2000 UE110
Epoch 2000 Oct. 23.0 TT = JDT 2451840.5                 Spahr
M 351.43370              (2000.0)            P               Q
n   0.19661132     Peri.  217.17534     -0.10355541     -0.65247061
a   2.9290741      Node   251.83542     +0.99045831     -0.13665065
e   0.3033004      Incl.   52.19288     -0.09093194     -0.74539164
P   5.01           H   14.0           G   0.15
From 73 observations 2000 Oct. 29-Nov. 6.

Ephemeris:
2000 UE110               a,e,i = 2.93, 0.30, 52                  q = 2.0407
Date    TT    R. A. (2000) Decl.     Delta      r     Elong.  Phase     V
2000 10 23    07 33.12   +02 09.8    1.723    2.061    94.9    28.8    18.0
2000 11 02    07 38.48   -03 18.9    1.610    2.053   101.5    28.3    17.8
2000 11 12    07 40.81   -09 17.0    1.513    2.047   107.9    27.4    17.7
2000 11 22    07 39.63   -15 35.2    1.437    2.043   113.5    26.3    17.5
2000 12 02    07 34.47   -21 56.9    1.385    2.041   117.8    25.3    17.4
2000 12 12    07 25.13   -27 59.0    1.358    2.041   120.4    24.6    17.4
2000 12 22    07 11.91   -33 16.4    1.356    2.044   120.9    24.4    17.3
2001 01 01    06 55.80   -37 27.7    1.377    2.048   119.5    24.7    17.4
2001 01 11    06 38.67   -40 22.3    1.416    2.055   116.7    25.3    17.5
2001 01 21    06 22.68   -42 02.1    1.470    2.064   113.0    26.0    17.6
2001 01 31    06 09.79   -42 38.1    1.533    2.074   109.0    26.7    17.7
2001 02 10    06 01.21   -42 26.3    1.602    2.087   105.0    27.2    17.8
2001 02 20    05 57.32   -41 42.3    1.673    2.102   101.2    27.5    18.0
2001 03 02    05 57.98   -40 38.7    1.745    2.118    97.6    27.6    18.1
2001 03 12    06 02.77   -39 25.6    1.816    2.136    94.4    27.6    18.2
2001 03 22    06 11.13   -38 09.6    1.885    2.156    91.5    27.5    18.3
2001 04 01    06 22.59   -36 55.2    1.953    2.177    88.9    27.3    18.4
2001 04 11    06 36.66   -35 46.0    2.020    2.199    86.5    27.1    18.5
2001 04 21    06 52.95   -34 43.8    2.085    2.223    84.3    26.7    18.5
2001 05 01    07 11.11   -33 49.9    2.152    2.248    82.2    26.4    18.6
2001 05 11    07 30.80   -33 05.4    2.219    2.274    80.1    25.9    18.7
2001 05 21    07 51.73   -32 30.4    2.289    2.301    77.9    25.5    18.8
2001 05 31    08 13.65   -32 05.2    2.363    2.329    75.7    24.9    18.9
2001 06 10    08 36.28   -31 49.5    2.440    2.357    73.3    24.4    18.9
2001 06 20    08 59.42   -31 42.7    2.522    2.387    70.7    23.7    19.0
2001 06 30    09 22.85   -31 44.5    2.608    2.417    67.9    22.9    19.1

Timothy B. Spahr             (C) Copyright 2000 MPC           M.P.E.C. 2000-V19

Read MPEC 2000-V18 Read MPEC 2000-V20


Our Web policy. Index to the CBAT/MPC/ICQ pages.


Valid HTML 4.01!